Location: ??????
(36.0418°N, 43.6351°E)
Time: 05:41:40
(UTC+00:00)

NOSS 3-2 (C) - Pass Details

Date: 07 March 2021
Orbit: 783 x 1429 km, 63.4° (Epoch: 11 April)

Event Time Altitude Azimuth Distance (km) Brightness Sun altitude
Rises 02:09:42 0° 329° (NNW) 4,061 6.5 -16.6°
Reaches altitude 10° 02:12:18 10° 330° (NNW) 3,179 5.9 -16.0°
Maximum altitude 02:20:11 82° 59° (ENE) 1,357 4.3 -14.5°
Drops below altitude 10° 02:28:55 10° 146° (SSE) 3,505 6.8 -12.7°
Sets 02:31:55 0° 148° (SSE) 4,495 7.4 -12.1°
